Date_and_time,latitude,longitude,wind_speed,RelWindDirFrom,WindDirFrom,air_pressure,air_temperature,relative_humidity,Temp,platform_speed_wrt_ground,air_pressure_at_mean_sea_level,platform_orientation
2019-06-22 00:00,50.6304466666667,-96.9807633333333,14.7,17.1,109,986.12,21.7,55,21.95,0.0,1011.85,165.5
2019-06-22 00:10,50.6304483333333,-96.9807666666667,14.4,16.9,113,986.25,21.6,54,21.93,0.0,1011.98,165.5
2019-06-22 00:20,50.6304483333333,-96.9807683333333,14.6,17.7,119,986.31,21.6,53,21.92,0.0,1012.05,165.5
2019-06-22 00:30,50.6304483333333,-96.9807683333333,16.7,19.7,111,986.15,21.9,51,21.90,0.0,1011.87,165.5
2019-06-22 00:40,50.6304483333333,-96.98077,16.4,19.2,105,986.04,21.9,51,21.88,0.0,1011.75,165.5
2019-06-22 00:50,50.6304483333333,-96.9807683333333,15.7,18.3,101,986.11,21.9,51,21.86,0.0,1011.81,165.5
2019-06-22 01:00,50.6304483333333,-96.9807683333333,15.2,18.3,94,986.02,21.9,51,21.83,0.0,1011.73,66.4
2019-06-22 01:10,50.6304533333333,-96.9807783333333,14.7,17.2,93,985.96,21.8,52,21.81,0.0,1011.69,66.4
2019-06-22 01:20,50.6304516666667,-96.9807766666667,14.8,18.0,94,985.88,21.7,53,21.77,0.0,1011.60,66.4
2019-06-22 01:30,50.63045,-96.9807733333333,14.5,17.4,94,985.83,21.7,52,21.73,0.0,1011.56,66.4
2019-06-22 01:40,50.63045,-96.9807716666667,13.1,15.5,94,985.87,21.7,53,21.71,0.0,1011.60,66.4
2019-06-22 01:50,50.63045,-96.9807716666667,11.6,13.5,92,985.87,21.6,54,21.71,0.0,1011.61,66.4
2019-06-22 02:00,50.6304483333333,-96.9807716666667,10.7,12.1,95,985.92,21.4,56,21.70,0.0,1011.68,125.3
2019-06-22 02:10,50.6304483333333,-96.98077,10.8,12.5,101,986.01,21.2,57,21.69,0.0,1011.78,125.3
2019-06-22 02:20,50.6304566666667,-96.980765,11.4,16.8,115,986.11,21.0,60,21.68,0.0,1011.88,125.3
2019-06-22 02:30,50.6304566666667,-96.9807566666667,15.9,19.9,124,986.12,21.3,54,21.67,0.0,1011.87,125.3
2019-06-22 02:40,50.6304516666667,-96.98078,18.6,25.6,130,986.09,21.6,48,21.64,0.0,1011.83,125.3
2019-06-22 02:50,50.630455,-96.9807783333333,18.0,24.1,133,986.24,21.3,50,21.60,0.0,1011.99,125.3
2019-06-22 03:00,50.6304533333333,-96.980775,20.3,25.9,140,986.28,20.6,53,21.60,0.0,1012.07,311.7
2019-06-22 03:10,50.6304533333333,-96.9807733333333,18.6,22.8,139,986.32,20.0,55,21.58,0.0,1012.14,311.7
2019-06-22 03:20,50.6304516666667,-96.9807733333333,17.2,23.6,128,986.40,20.1,57,21.55,0.0,1012.22,311.7
2019-06-22 03:30,50.6304516666667,-96.9807733333333,16.7,23.3,133,986.47,19.4,57,21.53,0.0,1012.33,311.7
2019-06-22 03:40,50.6304533333333,-96.9807716666667,14.0,18.1,135,986.50,18.9,60,21.51,0.0,1012.38,311.7
2019-06-22 03:50,50.6304533333333,-96.9807716666667,16.1,19.8,139,986.52,18.6,62,21.50,0.0,1012.43,311.7
2019-06-22 04:00,50.6304533333333,-96.9807716666667,15.3,19.5,148,986.59,18.1,67,21.48,0.0,1012.53,311.7
2019-06-22 04:10,50.6304516666667,-96.9807716666667,13.5,19.0,162,986.61,17.9,69,21.47,0.0,1012.57,311.7
2019-06-22 04:20,50.6304366666667,-96.9807566666667,12.4,14.9,156,986.59,17.5,71,21.48,0.0,1012.56,311.7
2019-06-22 04:30,50.63044,-96.9807616666667,10.4,15.0,140,986.39,17.4,71,21.46,0.0,1012.34,311.7
2019-06-22 04:40,50.6304433333333,-96.9807633333333,6.1,8.4,110,986.11,17.9,73,21.45,0.0,1012.05,311.7
2019-06-22 04:50,50.6304433333333,-96.980765,3.9,5.9,128,986.07,17.6,73,21.46,0.0,1012.04,311.7
2019-06-22 05:00,50.6304433333333,-96.980765,2.3,5.1,206,986.13,17.2,76,21.46,0.0,1012.15,167.4
2019-06-22 05:10,50.630445,-96.9807633333333,2.5,4.2,147,986.26,17.2,75,21.47,0.0,1012.28,167.4
2019-06-22 05:20,50.630445,-96.9807616666667,2.1,4.2,36,986.10,17.5,77,21.48,0.0,1012.14,167.4
2019-06-22 05:30,50.630445,-96.9807616666667,3.3,4.8,6,985.94,17.6,78,21.48,0.0,1011.99,167.4
2019-06-22 05:40,50.6304466666667,-96.9807933333333,5.4,7.7,22,985.80,17.8,80,21.46,0.0,1011.84,167.4
2019-06-22 05:50,50.6304433333333,-96.9807716666667,4.7,6.9,53,985.69,18.1,73,21.45,0.0,1011.75,167.4
2019-06-22 06:00,50.6304416666667,-96.9807666666667,6.2,8.3,43,985.35,18.5,69,21.44,0.0,1011.39,165.5
2019-06-22 06:10,50.6304433333333,-96.9807633333333,4.5,7.0,48,985.24,19.1,66,21.45,0.0,1011.27,165.5
2019-06-22 06:20,50.6304433333333,-96.9807616666667,6.5,10.5,94,985.12,19.3,66,21.48,0.0,1011.14,165.5
2019-06-22 06:30,50.630455,-96.9807533333333,12.8,18.6,120,984.98,19.9,63,21.49,0.0,1010.94,165.5
2019-06-22 06:40,50.63044,-96.98076,16.1,21.5,123,984.83,20.2,61,21.48,0.0,1010.79,165.5
2019-06-22 06:50,50.6304433333333,-96.9807616666667,17.8,21.9,125,984.80,20.2,60,21.48,0.0,1010.78,165.5
2019-06-22 07:00,50.6304416666667,-96.980765,17.4,21.9,127,984.77,20.1,60,21.48,0.0,1010.74,165.5
2019-06-22 07:10,50.6304416666667,-96.9807633333333,18.7,23.3,138,984.93,19.3,61,21.46,0.0,1010.94,165.5
2019-06-22 07:20,50.6304433333333,-96.980765,16.4,20.6,135,985.02,18.9,63,21.43,0.0,1011.04,165.5
2019-06-22 07:30,50.6304433333333,-96.980765,13.8,18.9,131,985.00,19.0,63,21.41,0.0,1011.01,165.5
2019-06-22 07:40,50.6304433333333,-96.9807666666667,13.5,17.8,130,984.94,19.1,63,21.40,0.0,1010.93,165.5
2019-06-22 07:50,50.6304433333333,-96.9807666666667,13.8,17.8,129,984.93,19.2,63,21.36,0.0,1010.89,165.5
2019-06-22 08:00,50.6304433333333,-96.9807666666667,15.4,20.2,125,984.75,19.5,63,21.32,0.0,1010.67,0.0
2019-06-22 08:10,50.6304433333333,-96.9807666666667,14.9,18.0,126,984.69,19.6,64,21.27,0.0,1010.60,0.0
2019-06-22 08:20,50.630445,-96.9807683333333,15.9,19.5,126,984.57,19.7,63,21.28,0.0,1010.44,0.0
2019-06-22 08:30,50.630445,-96.9807666666667,17.5,21.6,125,984.47,19.7,62,21.26,0.0,1010.33,0.0
2019-06-22 08:40,50.630445,-96.9807683333333,18.0,22.6,125,984.38,19.7,63,21.22,0.0,1010.24,0.0
2019-06-22 08:50,50.63043,-96.9807583333333,17.6,23.1,129,984.34,19.4,61,21.17,0.0,1010.21,0.0
2019-06-22 09:00,50.6304533333333,-96.9807633333333,19.1,24.3,126,984.25,19.5,62,21.14,0.0,1010.15,360.0
2019-06-22 09:10,50.6304566666667,-96.9807683333333,18.3,25.2,128,984.26,19.5,61,21.11,0.0,1010.17,360.0
2019-06-22 09:20,50.6304533333333,-96.9807683333333,20.3,25.4,127,984.41,19.5,61,21.10,0.0,1010.32,360.0
2019-06-22 09:30,50.630455,-96.98077,22.2,30.3,128,984.43,18.9,64,21.07,0.0,1010.37,360.0
2019-06-22 09:40,50.630455,-96.98077,24.6,34.5,126,984.44,18.0,77,21.03,0.0,1010.42,360.0
2019-06-22 09:50,50.6304533333333,-96.98077,19.6,24.9,120,984.48,17.5,81,20.99,0.0,1010.47,360.0
2019-06-22 10:00,50.6304533333333,-96.9807733333333,21.9,30.6,124,984.54,18.4,70,21.00,0.0,1010.48,345.5
2019-06-22 10:10,50.6304516666667,-96.9807716666667,24.3,32.6,129,984.63,18.5,67,21.00,0.0,1010.57,345.5
2019-06-22 10:20,50.6304516666667,-96.9807716666667,21.4,27.1,128,984.68,18.2,71,20.97,0.0,1010.63,345.5
2019-06-22 10:30,50.6304516666667,-96.9807716666667,25.0,33.1,127,984.49,18.1,73,20.96,0.0,1010.45,345.5
2019-06-22 10:40,50.6304516666667,-96.9807716666667,25.1,31.2,135,984.62,17.1,82,20.94,0.0,1010.64,345.5
2019-06-22 10:50,50.63045,-96.9807716666667,23.7,29.4,143,984.86,15.7,97,20.90,0.0,1010.93,345.5
2019-06-22 11:00,50.63045,-96.98077,23.0,30.5,143,984.89,15.4,99,20.88,0.0,1010.99,360.0
2019-06-22 11:10,50.6304416666667,-96.980775,22.8,27.9,140,984.96,15.4,99,20.86,0.0,1011.05,360.0
2019-06-22 11:20,50.6304583333333,-96.9807716666667,23.0,30.6,132,985.05,15.7,100,20.86,0.0,1011.16,360.0
2019-06-22 11:30,50.6304483333333,-96.9807666666667,25.2,33.6,134,985.04,15.6,100,20.80,0.0,1011.19,360.0
2019-06-22 11:40,50.6304466666667,-96.9807733333333,25.8,35.5,130,985.13,15.7,99,20.76,0.0,1011.31,360.0
2019-06-22 11:50,50.6304533333333,-96.9807733333333,26.0,32.9,133,985.11,15.6,99,20.71,0.0,1011.25,360.0
2019-06-22 12:00,50.6304516666667,-96.9807766666667,23.2,29.0,134,985.18,15.5,100,20.68,0.0,1011.32,270.0
2019-06-22 12:10,50.6304516666667,-96.980775,23.8,31.3,139,985.26,15.3,100,20.66,0.0,1011.43,270.0
2019-06-22 12:20,50.6304516666667,-96.9807733333333,25.0,31.7,138,985.28,15.3,100,20.62,0.0,1011.45,270.0
2019-06-22 12:30,50.6304516666667,-96.9807716666667,24.2,30.2,138,985.25,15.5,100,20.61,0.0,1011.46,270.0
2019-06-22 12:40,50.6304516666667,-96.9807716666667,25.1,33.9,142,985.20,15.7,100,20.61,0.0,1011.46,270.0
2019-06-22 12:50,50.63045,-96.980785,26.0,32.8,145,985.24,15.7,100,20.62,0.0,1011.52,270.0
2019-06-22 13:00,50.63045,-96.9807883333333,25.3,32.6,153,985.42,15.7,100,20.61,0.0,1011.70,270.0
2019-06-22 13:10,50.6304516666667,-96.9807833333333,24.4,29.6,150,985.35,15.6,100,20.52,0.0,1011.62,270.0
2019-06-22 13:20,50.6304483333333,-96.9807683333333,23.9,28.7,151,985.28,15.6,100,20.52,0.0,1011.55,270.0
2019-06-22 13:30,50.6304516666667,-96.980775,23.3,28.9,150,985.28,15.7,100,20.57,0.0,1011.54,270.0
2019-06-22 13:40,50.63045,-96.9807716666667,24.1,29.2,149,985.25,15.7,100,20.56,0.0,1011.51,270.0
2019-06-22 13:50,50.6304433333333,-96.98076,23.3,28.7,149,985.33,15.7,100,20.43,0.0,1011.60,270.0
2019-06-22 14:00,50.6304433333333,-96.98076,22.8,28.0,152,985.56,15.7,100,20.42,0.0,1011.85,360.0
2019-06-22 14:10,50.6304433333333,-96.9807583333333,21.5,26.9,153,985.60,15.6,100,20.43,0.0,1011.90,360.0
2019-06-22 14:20,50.6304416666667,-96.9807583333333,20.7,25.4,152,985.61,15.7,100,20.46,0.0,1011.89,360.0
2019-06-22 14:30,50.6304433333333,-96.9807566666667,20.7,26.3,152,985.64,15.8,100,20.47,0.0,1011.91,360.0
2019-06-22 14:40,50.630445,-96.9807583333333,19.5,24.6,154,985.65,16.0,100,20.41,0.0,1011.90,360.0
2019-06-22 14:50,50.630445,-96.98076,20.2,26.0,157,985.66,16.1,100,20.35,0.0,1011.91,360.0
2019-06-22 15:00,50.630445,-96.9807616666667,19.9,26.1,161,985.63,16.3,100,20.38,0.0,1011.88,167.4
2019-06-22 15:10,50.630445,-96.9807633333333,20.3,24.6,157,985.69,16.4,99,20.39,0.0,1011.94,167.4
2019-06-22 15:20,50.6304433333333,-96.980765,19.1,24.7,158,985.77,16.5,99,20.41,0.0,1012.01,167.4
2019-06-22 15:30,50.6304433333333,-96.980765,18.6,23.2,154,985.81,16.5,99,20.40,0.0,1012.06,167.4
2019-06-22 15:40,50.6304433333333,-96.9807633333333,17.7,22.5,154,985.92,16.5,99,20.38,0.0,1012.16,167.4
2019-06-22 15:50,50.6304433333333,-96.9807633333333,17.3,22.0,157,985.99,16.6,99,20.38,0.0,1012.23,167.4
2019-06-22 16:00,50.6304433333333,-96.9807633333333,16.3,22.0,156,986.10,16.8,99,20.41,0.0,1012.34,125.3
2019-06-22 16:10,50.6304433333333,-96.9807633333333,17.1,20.8,149,986.09,17.0,98,20.40,0.0,1012.32,125.3
2019-06-22 16:20,50.630445,-96.9807633333333,18.1,21.1,144,986.05,17.1,97,20.35,0.0,1012.26,125.3
2019-06-22 16:30,50.630445,-96.9807633333333,18.0,21.6,145,986.03,17.2,94,20.31,0.0,1012.23,125.3
2019-06-22 16:40,50.630445,-96.9807633333333,18.5,21.9,145,986.10,17.2,93,20.30,0.0,1012.29,125.3
2019-06-22 16:50,50.630445,-96.9807633333333,18.8,22.4,145,986.10,17.2,92,20.35,0.0,1012.29,125.3
2019-06-22 17:00,50.630445,-96.9807633333333,18.4,22.5,152,986.17,17.4,90,20.38,0.0,1012.34,270.0
2019-06-22 17:10,50.630445,-96.9807633333333,16.7,20.7,152,986.08,17.7,89,20.38,0.0,1012.24,270.0
2019-06-22 17:20,50.630445,-96.9807633333333,16.8,21.8,152,986.05,17.7,88,20.41,0.0,1012.21,270.0
2019-06-22 17:30,50.630445,-96.9807633333333,17.5,21.2,150,986.11,17.9,85,20.41,0.0,1012.26,270.0
2019-06-22 17:40,50.630445,-96.9807633333333,16.8,19.8,151,986.15,18.1,84,20.41,0.0,1012.28,270.0
2019-06-22 17:50,50.630445,-96.980765,16.8,20.5,146,986.01,18.1,82,20.43,0.0,1012.13,270.0
2019-06-22 18:00,50.6304466666667,-96.980765,17.6,20.4,146,985.93,18.1,82,20.48,0.0,1012.04,347.4
2019-06-22 18:10,50.630445,-96.980765,17.9,20.9,145,985.94,18.1,82,20.51,0.0,1012.04,347.4
2019-06-22 18:20,50.630455,-96.98077,16.1,19.2,145,986.01,18.1,86,20.52,0.0,1012.11,347.4
2019-06-22 18:30,50.630455,-96.98078,16.8,19.7,144,985.87,18.2,86,20.53,0.0,1011.97,347.4
2019-06-22 18:40,50.6304416666667,-96.9807683333333,16.2,19.4,143,985.97,18.3,86,20.52,0.0,1012.06,347.4
2019-06-22 18:50,50.6304483333333,-96.9807716666667,16.4,19.0,140,985.92,18.5,84,20.50,0.0,1011.99,347.4
2019-06-22 19:00,50.63045,-96.98077,15.7,19.3,138,985.91,18.6,82,20.50,0.0,1011.97,360.0
2019-06-22 19:10,50.63045,-96.9807683333333,16.6,19.3,143,985.83,18.8,78,20.50,0.0,1011.88,360.0
2019-06-22 19:20,50.6304566666667,-96.9807733333333,16.7,19.3,142,985.77,18.8,77,20.51,0.0,1011.80,360.0
2019-06-22 19:30,50.630445,-96.9807783333333,17.2,22.6,140,985.91,18.8,79,20.52,0.0,1011.94,360.0
2019-06-22 19:40,50.6304483333333,-96.980775,15.4,20.4,131,985.89,19.1,81,20.53,0.0,1011.91,360.0
2019-06-22 19:50,50.6304583333333,-96.98078,17.7,22.2,130,985.77,19.1,79,20.54,0.0,1011.78,360.0
2019-06-22 20:00,50.6304416666667,-96.9807566666667,15.9,20.1,144,985.74,18.7,80,20.54,0.0,1011.77,90.0
2019-06-22 20:10,50.630445,-96.9807633333333,13.9,17.8,133,985.36,19.2,80,20.52,0.0,1011.35,90.0
2019-06-22 20:20,50.6304466666667,-96.9807666666667,15.8,20.0,121,985.03,19.7,81,20.51,0.0,1010.99,90.0
2019-06-22 20:30,50.6304333333333,-96.9807616666667,19.4,23.5,114,984.99,19.6,86,20.53,0.0,1010.95,90.0
2019-06-22 20:40,50.6304583333333,-96.9807633333333,19.0,23.6,120,985.23,19.3,88,20.55,0.0,1011.20,90.0
2019-06-22 20:50,50.6304583333333,-96.980775,20.0,23.5,116,985.32,18.9,93,20.52,0.0,1011.30,90.0
2019-06-22 21:00,50.630455,-96.9807766666667,20.6,24.9,119,985.25,18.8,93,20.56,0.0,1011.23,311.7
2019-06-22 21:10,50.6304533333333,-96.9807783333333,21.0,25.2,122,985.26,18.7,93,20.58,0.0,1011.24,311.7
2019-06-22 21:20,50.6304566666667,-96.9807766666667,21.5,26.8,124,985.27,18.7,93,20.55,0.0,1011.26,311.7
2019-06-22 21:30,50.6304566666667,-96.9807766666667,22.2,26.7,123,985.29,18.7,94,20.51,0.0,1011.26,311.7
2019-06-22 21:40,50.6304383333333,-96.980775,21.9,27.2,125,985.29,18.5,95,20.48,0.0,1011.27,311.7
2019-06-22 21:50,50.6304466666667,-96.9807716666667,20.9,27.5,127,985.22,18.2,96,20.50,0.0,1011.23,311.7
2019-06-22 22:00,50.63045,-96.9807783333333,19.7,25.6,129,985.24,18.0,96,20.50,0.0,1011.24,270.0
2019-06-22 22:10,50.6304433333333,-96.9807833333333,21.2,27.0,128,985.14,18.1,94,20.50,0.0,1011.11,270.0
2019-06-22 22:20,50.6304566666667,-96.9807783333333,22.8,27.7,126,985.12,18.1,97,20.46,0.0,1011.10,270.0
2019-06-22 22:30,50.63044,-96.9807216666667,20.7,28.4,131,985.20,17.9,98,20.44,0.0,1011.20,270.0
2019-06-22 22:40,50.63045,-96.98075,21.9,29.7,128,985.28,18.0,95,20.45,0.0,1011.29,270.0
2019-06-22 22:50,50.6304466666667,-96.9807733333333,21.2,28.9,129,985.24,18.0,93,20.46,0.0,1011.25,270.0
2019-06-22 23:00,50.6304483333333,-96.9807766666667,21.3,28.8,132,985.28,18.0,86,20.47,0.0,1011.30,305.3
2019-06-22 23:10,50.6304416666667,-96.9807666666667,19.9,28.1,134,985.31,18.3,83,20.46,0.0,1011.32,305.3
2019-06-22 23:20,50.6304433333333,-96.9807766666667,22.4,28.6,138,985.27,18.0,86,20.45,0.0,1011.29,305.3
2019-06-22 23:30,50.6304316666667,-96.9807716666667,20.9,26.7,137,985.30,18.0,88,20.43,0.0,1011.33,305.3
